Time,TemperatureF,DewpointF,PressureIn,WindDirection,WindDirectionDegrees,WindSpeedMPH,WindSpeedGustMPH,Humidity,HourlyPrecipIn,Conditions,Clouds,dailyrainin,SolarRadiationWatts/m^2,SoftwareType,DateUTC
2013-08-08 00:02:00,53.0,52.0,-100.00,WSW,249,1.0,2.0,95,0.00,,,0.01,0.000000,,2013-08-08 05:02:00,
2013-08-08 00:33:00,51.0,50.0,-100.00,North,10,0.0,2.0,96,0.00,,,0.01,0.000000,,2013-08-08 05:33:00,
2013-08-08 00:43:00,51.0,50.0,-100.00,North,10,0.0,2.0,96,0.00,,,0.01,0.000000,,2013-08-08 05:43:00,
2013-08-08 00:52:00,51.0,50.0,-100.00,North,10,0.0,2.0,96,0.00,,,0.01,0.000000,,2013-08-08 05:52:00,
2013-08-08 01:01:00,51.0,50.0,-100.00,North,10,0.0,2.0,96,0.00,,,0.01,0.000000,,2013-08-08 06:01:00,
2013-08-08 01:32:00,51.0,50.0,-100.00,East,96,0.0,3.0,97,0.00,,,0.00,0.000000,,2013-08-08 06:32:00,
2013-08-08 01:43:00,51.0,50.0,-100.00,East,96,0.0,3.0,97,0.00,,,0.00,0.000000,,2013-08-08 06:43:00,
2013-08-08 01:52:00,51.0,50.0,-100.00,East,96,0.0,3.0,97,0.00,,,0.00,0.000000,,2013-08-08 06:52:00,
2013-08-08 02:01:00,51.0,50.0,-100.00,East,96,0.0,3.0,97,0.00,,,0.00,0.000000,,2013-08-08 07:01:00,
2013-08-08 02:32:00,50.0,49.0,-100.00,East,94,1.0,2.0,97,0.00,,,0.00,0.000000,,2013-08-08 07:32:00,
2013-08-08 02:43:00,50.0,49.0,-100.00,East,94,1.0,2.0,97,0.00,,,0.00,0.000000,,2013-08-08 07:43:00,
2013-08-08 02:53:00,50.0,49.0,-100.00,East,94,1.0,2.0,97,0.00,,,0.00,0.000000,,2013-08-08 07:53:00,
2013-08-08 03:02:00,50.0,49.0,-100.00,East,94,1.0,2.0,97,0.00,,,0.00,0.000000,,2013-08-08 08:02:00,
2013-08-08 03:32:00,49.0,48.0,-100.00,NE,54,1.0,2.0,97,0.00,,,0.00,0.000000,,2013-08-08 08:32:00,
2013-08-08 03:43:00,49.0,48.0,-100.00,NE,54,1.0,2.0,97,0.00,,,0.00,0.000000,,2013-08-08 08:43:00,
2013-08-08 03:53:00,49.0,48.0,-100.00,NE,54,1.0,2.0,97,0.00,,,0.00,0.000000,,2013-08-08 08:53:00,
2013-08-08 04:02:00,49.0,48.0,-100.00,NE,54,1.0,2.0,97,0.00,,,0.00,0.000000,,2013-08-08 09:02:00,
2013-08-08 04:32:00,50.0,49.0,-100.00,ESE,113,2.0,3.0,98,0.00,,,0.00,0.000000,,2013-08-08 09:32:00,
2013-08-08 04:43:00,50.0,49.0,-100.00,ESE,113,2.0,3.0,98,0.00,,,0.00,0.000000,,2013-08-08 09:43:00,
2013-08-08 04:53:00,50.0,49.0,-100.00,ESE,113,2.0,3.0,98,0.00,,,0.00,0.000000,,2013-08-08 09:53:00,
2013-08-08 05:01:00,50.0,49.0,-100.00,ESE,113,2.0,3.0,98,0.00,,,0.00,0.000000,,2013-08-08 10:01:00,
2013-08-08 05:33:00,51.0,50.0,-100.00,NNE,18,1.0,3.0,98,0.00,,,0.00,0.000000,,2013-08-08 10:33:00,
2013-08-08 05:43:00,51.0,50.0,-100.00,NNE,18,1.0,3.0,98,0.00,,,0.00,0.000000,,2013-08-08 10:43:00,
2013-08-08 05:52:00,51.0,50.0,-100.00,NNE,18,1.0,3.0,98,0.00,,,0.00,0.000000,,2013-08-08 10:52:00,
2013-08-08 06:02:00,51.0,50.0,-100.00,NNE,18,1.0,3.0,98,0.00,,,0.00,0.000000,,2013-08-08 11:02:00,
2013-08-08 06:32:00,51.0,50.0,-100.00,NNE,31,1.0,3.0,98,0.00,,,0.00,1.000000,,2013-08-08 11:32:00,
2013-08-08 06:43:00,51.0,50.0,-100.00,NNE,31,1.0,3.0,98,0.00,,,0.00,1.000000,,2013-08-08 11:43:00,
2013-08-08 06:52:00,51.0,50.0,-100.00,NNE,31,1.0,3.0,98,0.00,,,0.00,1.000000,,2013-08-08 11:52:00,
2013-08-08 07:01:00,51.0,50.0,-100.00,NNE,31,1.0,3.0,98,0.00,,,0.00,1.000000,,2013-08-08 12:01:00,
2013-08-08 07:32:00,54.0,53.0,-100.00,NNE,26,1.0,4.0,97,0.00,,,0.00,43.000000,,2013-08-08 12:32:00,
2013-08-08 07:43:00,54.0,53.0,-100.00,NNE,26,1.0,4.0,97,0.00,,,0.00,43.000000,,2013-08-08 12:43:00,
2013-08-08 07:53:00,54.0,53.0,-100.00,NNE,26,1.0,4.0,97,0.00,,,0.00,43.000000,,2013-08-08 12:53:00,
2013-08-08 08:01:00,54.0,53.0,-100.00,NNE,26,1.0,4.0,97,0.00,,,0.00,43.000000,,2013-08-08 13:01:00,
2013-08-08 08:32:00,58.0,55.0,-100.00,North,6,4.0,7.0,91,0.00,,,0.00,148.000000,,2013-08-08 13:32:00,
2013-08-08 08:43:00,58.0,55.0,-100.00,North,6,4.0,7.0,91,0.00,,,0.00,148.000000,,2013-08-08 13:43:00,
2013-08-08 08:53:00,58.0,55.0,-100.00,North,6,4.0,7.0,91,0.00,,,0.00,148.000000,,2013-08-08 13:53:00,
2013-08-08 09:02:00,58.0,55.0,-100.00,North,6,4.0,7.0,91,0.00,,,0.00,148.000000,,2013-08-08 14:02:00,
2013-08-08 09:32:00,60.0,55.0,-100.00,East,95,3.0,6.0,85,0.00,,,0.00,152.000000,,2013-08-08 14:32:00,
2013-08-08 09:43:00,60.0,55.0,-100.00,East,95,3.0,6.0,85,0.00,,,0.00,152.000000,,2013-08-08 14:43:00,
2013-08-08 09:53:00,60.0,55.0,-100.00,East,95,3.0,6.0,85,0.00,,,0.00,152.000000,,2013-08-08 14:53:00,
2013-08-08 10:02:00,60.0,55.0,-100.00,East,95,3.0,6.0,85,0.00,,,0.00,152.000000,,2013-08-08 15:02:00,
2013-08-08 10:33:00,65.0,55.0,-100.00,SE,127,3.0,5.0,69,0.00,,,0.00,301.000000,,2013-08-08 15:33:00,
2013-08-08 10:43:00,65.0,55.0,-100.00,SE,127,3.0,5.0,69,0.00,,,0.00,301.000000,,2013-08-08 15:43:00,
2013-08-08 10:53:00,65.0,55.0,-100.00,SE,127,3.0,5.0,69,0.00,,,0.00,301.000000,,2013-08-08 15:53:00,
2013-08-08 11:02:00,65.0,55.0,-100.00,SE,127,3.0,5.0,69,0.00,,,0.00,301.000000,,2013-08-08 16:02:00,
2013-08-08 11:32:00,69.0,55.0,-100.00,SW,226,6.0,10.0,62,0.00,,,0.00,699.000000,,2013-08-08 16:32:00,
2013-08-08 11:42:00,69.0,55.0,-100.00,SW,226,6.0,10.0,62,0.00,,,0.00,699.000000,,2013-08-08 16:42:00,
2013-08-08 11:52:00,69.0,55.0,-100.00,SW,226,6.0,10.0,62,0.00,,,0.00,699.000000,,2013-08-08 16:52:00,
2013-08-08 12:02:00,69.0,55.0,-100.00,SW,226,6.0,10.0,62,0.00,,,0.00,699.000000,,2013-08-08 17:02:00,
2013-08-08 12:32:00,71.0,54.0,-100.00,SW,235,10.0,15.0,56,0.00,,,0.00,816.000000,,2013-08-08 17:32:00,
2013-08-08 12:43:00,71.0,54.0,-100.00,SW,235,10.0,15.0,56,0.00,,,0.00,816.000000,,2013-08-08 17:43:00,
2013-08-08 12:52:00,71.0,54.0,-100.00,SW,235,10.0,15.0,56,0.00,,,0.00,816.000000,,2013-08-08 17:52:00,
2013-08-08 13:01:00,71.0,54.0,-100.00,SW,235,10.0,15.0,56,0.00,,,0.00,816.000000,,2013-08-08 18:01:00,
2013-08-08 13:32:00,73.0,57.0,-100.00,WSW,240,10.0,16.0,57,0.00,,,0.00,890.000000,,2013-08-08 18:32:00,
2013-08-08 13:43:00,73.0,57.0,-100.00,WSW,240,10.0,16.0,57,0.00,,,0.00,890.000000,,2013-08-08 18:43:00,
2013-08-08 13:53:00,73.0,57.0,-100.00,WSW,240,10.0,16.0,57,0.00,,,0.00,890.000000,,2013-08-08 18:53:00,
2013-08-08 14:01:00,73.0,57.0,-100.00,WSW,240,10.0,16.0,57,0.00,,,0.00,890.000000,,2013-08-08 19:01:00,
2013-08-08 14:32:00,73.0,56.0,-100.00,WSW,241,8.0,15.0,56,0.00,,,0.00,549.000000,,2013-08-08 19:32:00,
2013-08-08 14:43:00,73.0,56.0,-100.00,WSW,241,8.0,15.0,56,0.00,,,0.00,549.000000,,2013-08-08 19:43:00,
2013-08-08 14:58:00,73.0,56.0,-100.00,WSW,241,8.0,15.0,56,0.00,,,0.00,549.000000,,2013-08-08 19:58:00,
2013-08-08 15:32:00,74.0,56.0,-100.00,WSW,243,7.0,13.0,53,0.00,,,0.00,588.000000,,2013-08-08 20:32:00,
2013-08-08 15:42:00,74.0,56.0,-100.00,WSW,243,7.0,13.0,53,0.00,,,0.00,588.000000,,2013-08-08 20:42:00,
2013-08-08 15:52:00,74.0,56.0,-100.00,WSW,243,7.0,13.0,53,0.00,,,0.00,588.000000,,2013-08-08 20:52:00,
2013-08-08 16:01:00,74.0,56.0,-100.00,WSW,243,7.0,13.0,53,0.00,,,0.00,588.000000,,2013-08-08 21:01:00,
2013-08-08 16:34:00,72.0,58.0,-100.00,NW,326,7.0,12.0,62,0.00,,,0.00,314.000000,,2013-08-08 21:34:00,
2013-08-08 16:46:00,72.0,58.0,-100.00,NW,326,7.0,12.0,62,0.00,,,0.00,314.000000,,2013-08-08 21:46:00,
2013-08-08 16:57:00,72.0,58.0,-100.00,NW,326,7.0,12.0,62,0.00,,,0.00,314.000000,,2013-08-08 21:57:00,
2013-08-08 17:04:00,72.0,58.0,-100.00,NW,326,7.0,12.0,62,0.00,,,0.00,314.000000,,2013-08-08 22:04:00,
2013-08-08 17:37:00,73.0,57.0,-100.00,NW,322,6.0,10.0,57,0.00,,,0.00,433.000000,,2013-08-08 22:37:00,
2013-08-08 17:49:00,73.0,57.0,-100.00,NW,322,6.0,10.0,57,0.00,,,0.00,433.000000,,2013-08-08 22:49:00,
2013-08-08 17:58:00,73.0,57.0,-100.00,NW,322,6.0,10.0,57,0.00,,,0.00,433.000000,,2013-08-08 22:58:00,
2013-08-08 18:04:00,73.0,57.0,-100.00,NW,322,6.0,10.0,57,0.00,,,0.00,433.000000,,2013-08-08 23:04:00,
2013-08-08 18:37:00,74.0,58.0,-100.00,West,261,6.0,10.0,58,0.00,,,0.00,484.000000,,2013-08-08 23:37:00,
2013-08-08 18:50:00,74.0,58.0,-100.00,West,261,6.0,10.0,58,0.00,,,0.00,484.000000,,2013-08-08 23:50:00,
2013-08-08 18:57:00,74.0,58.0,-100.00,West,261,6.0,10.0,58,0.00,,,0.00,484.000000,,2013-08-08 23:57:00,
2013-08-08 19:05:00,74.0,58.0,-100.00,West,261,6.0,10.0,58,0.00,,,0.00,484.000000,,2013-08-09 00:05:00,
2013-08-08 19:35:00,72.0,58.0,-100.00,SW,224,4.0,7.0,61,0.00,,,0.00,159.000000,,2013-08-09 00:35:00,
2013-08-08 19:48:00,72.0,58.0,-100.00,SW,224,4.0,7.0,61,0.00,,,0.00,159.000000,,2013-08-09 00:48:00,
2013-08-08 20:03:00,72.0,58.0,-100.00,SW,224,4.0,7.0,61,0.00,,,0.00,159.000000,,2013-08-09 01:03:00,
2013-08-08 20:37:00,72.0,58.0,-100.00,West,264,2.0,6.0,62,0.00,,,0.00,117.000000,,2013-08-09 01:37:00,
2013-08-08 20:47:00,72.0,58.0,-100.00,West,264,2.0,6.0,62,0.00,,,0.00,117.000000,,2013-08-09 01:47:00,
2013-08-08 20:59:00,72.0,58.0,-100.00,West,264,2.0,6.0,62,0.00,,,0.00,117.000000,,2013-08-09 01:59:00,
2013-08-08 21:04:00,72.0,58.0,-100.00,West,264,2.0,6.0,62,0.00,,,0.00,117.000000,,2013-08-09 02:04:00,
2013-08-08 21:39:00,65.0,59.0,-100.00,WNW,283,1.0,4.0,82,0.00,,,0.00,9.000000,,2013-08-09 02:39:00,
2013-08-08 21:47:00,65.0,59.0,-100.00,WNW,283,1.0,4.0,82,0.00,,,0.00,9.000000,,2013-08-09 02:47:00,
2013-08-08 21:57:00,65.0,59.0,-100.00,WNW,283,1.0,4.0,82,0.00,,,0.00,9.000000,,2013-08-09 02:57:00,
2013-08-08 22:06:00,65.0,59.0,-100.00,WNW,283,1.0,4.0,82,0.00,,,0.00,9.000000,,2013-08-09 03:06:00,
2013-08-08 22:35:00,60.0,58.0,-100.00,NNW,341,1.0,6.0,92,0.00,,,0.00,0.000000,,2013-08-09 03:35:00,
2013-08-08 22:47:00,60.0,58.0,-100.00,NNW,341,1.0,6.0,92,0.00,,,0.00,0.000000,,2013-08-09 03:47:00,
2013-08-08 22:56:00,60.0,58.0,-100.00,NNW,341,1.0,6.0,92,0.00,,,0.00,0.000000,,2013-08-09 03:56:00,
2013-08-08 23:01:00,60.0,58.0,-100.00,NNW,341,1.0,6.0,92,0.00,,,0.00,0.000000,,2013-08-09 04:01:00,
2013-08-08 23:33:00,59.0,58.0,-100.00,SW,218,0.0,3.0,96,0.00,,,0.00,0.000000,,2013-08-09 04:33:00,
2013-08-08 23:43:00,59.0,58.0,-100.00,SW,218,0.0,3.0,96,0.00,,,0.00,0.000000,,2013-08-09 04:43:00,
2013-08-08 23:53:00,59.0,58.0,-100.00,SW,218,0.0,3.0,96,0.00,,,0.00,0.000000,,2013-08-09 04:53:00,